contact:dominique.lefevre@mio.osupytheas.fr, maurice.libes@osupytheas.fr, didier.mallarino@osupytheas.fr
Project:EMSO http://www.emso-fr.org/EMSO-France
Depth: 2436.0 m
Title:EMSO Ligure Ouest : Data MII capteur MICROCAT
DateTime_Computer,Latitude,Longitude,Temperature,Conductivity,Pressure,DateTime_Instrument
DateTime_Computer,Latitude,Longitude,degC,S m-1,dbar,DateTime_Instrument
2021-07-12T00:00:51Z,42.805,6.029,13.3090,4.60034,2470.38,2021-7-12T02:02:06Z
2021-07-12T00:03:54Z,42.805,6.029,13.3056,4.60068,2470.404,2021-7-12T02:05:09Z
2021-07-12T00:06:57Z,42.805,6.029,13.3051,4.60119,2470.38,2021-7-12T02:08:13Z
2021-07-12T00:10:00Z,42.805,6.029,13.3073,4.60072,2470.38,2021-7-12T02:11:16Z
2021-07-12T00:13:03Z,42.805,6.029,13.3082,4.60024,2470.357,2021-7-12T02:14:19Z
2021-07-12T00:16:06Z,42.805,6.029,13.3089,4.60032,2470.404,2021-7-12T02:17:22Z
2021-07-12T00:19:09Z,42.805,6.029,13.3062,4.60021,2470.357,2021-7-12T02:20:25Z
2021-07-12T00:22:13Z,42.805,6.029,13.3082,4.60061,2470.343,2021-7-12T02:23:28Z
2021-07-12T00:25:16Z,42.805,6.029,13.3043,4.60064,2470.366,2021-7-12T02:26:31Z
2021-07-12T00:28:19Z,42.805,6.029,13.3013,4.60073,2470.357,2021-7-12T02:29:34Z
2021-07-12T00:31:22Z,42.805,6.029,13.3039,4.60066,2470.38,2021-7-12T02:32:38Z
2021-07-12T00:34:25Z,42.805,6.029,13.3062,4.60097,2470.38,2021-7-12T02:35:41Z
2021-07-12T00:37:28Z,42.805,6.029,13.3056,4.60094,2470.38,2021-7-12T02:38:44Z
2021-07-12T00:40:31Z,42.805,6.029,13.3039,4.60034,2470.39,2021-7-12T02:41:47Z
2021-07-12T00:43:34Z,42.805,6.029,13.3052,4.60074,2470.366,2021-7-12T02:44:50Z
2021-07-12T00:46:38Z,42.805,6.029,13.3067,4.60055,2470.343,2021-7-12T02:47:53Z
2021-07-12T00:49:41Z,42.805,6.029,13.3050,4.60062,2470.38,2021-7-12T02:50:56Z
2021-07-12T00:52:44Z,42.805,6.029,13.3075,4.60050,2470.357,2021-7-12T02:53:59Z
2021-07-12T00:55:47Z,42.805,6.029,13.3036,4.60066,2470.366,2021-7-12T02:57:03Z
2021-07-12T00:58:50Z,42.805,6.029,13.3012,4.60050,2470.357,2021-7-12T03:00:06Z
2021-07-12T01:01:53Z,42.805,6.029,13.3048,4.60083,2470.366,2021-7-12T03:03:09Z
2021-07-12T01:04:56Z,42.805,6.029,13.3056,4.60074,2470.366,2021-7-12T03:06:12Z
2021-07-12T01:07:59Z,42.805,6.029,13.3049,4.60114,2470.357,2021-7-12T03:09:15Z
2021-07-12T01:11:02Z,42.805,6.029,13.3058,4.60052,2470.357,2021-7-12T03:12:18Z
2021-07-12T01:14:06Z,42.805,6.029,13.3075,4.60076,2470.357,2021-7-12T03:15:21Z
2021-07-12T01:17:09Z,42.805,6.029,13.3089,4.60075,2470.357,2021-7-12T03:18:24Z
2021-07-12T01:20:12Z,42.805,6.029,13.3076,4.60051,2470.357,2021-7-12T03:21:28Z
2021-07-12T01:23:15Z,42.805,6.029,13.3067,4.60033,2470.343,2021-7-12T03:24:31Z
2021-07-12T01:26:18Z,42.805,6.029,13.3064,4.60045,2470.394,2021-7-12T03:27:34Z
2021-07-12T01:29:21Z,42.805,6.029,13.3048,4.60030,2470.357,2021-7-12T03:30:37Z
2021-07-12T01:32:24Z,42.805,6.029,13.3048,4.60039,2470.32,2021-7-12T03:33:40Z
2021-07-12T01:35:27Z,42.805,6.029,13.3048,4.60027,2470.357,2021-7-12T03:36:43Z
2021-07-12T01:38:31Z,42.805,6.029,13.3076,4.60035,2470.32,2021-7-12T03:39:46Z
2021-07-12T01:41:34Z,42.805,6.029,13.3045,4.60076,2470.297,2021-7-12T03:42:49Z
2021-07-12T01:44:37Z,42.805,6.029,13.3021,4.60057,2470.334,2021-7-12T03:45:53Z
2021-07-12T01:47:40Z,42.805,6.029,13.3031,4.60024,2470.357,2021-7-12T03:48:56Z
2021-07-12T01:50:43Z,42.805,6.029,13.3037,4.60031,2470.297,2021-7-12T03:51:59Z
2021-07-12T01:53:46Z,42.805,6.029,13.3056,4.60028,2470.32,2021-7-12T03:55:02Z
2021-07-12T01:56:49Z,42.805,6.029,13.3051,4.60031,2470.32,2021-7-12T03:58:05Z
2021-07-12T01:59:52Z,42.805,6.029,13.3048,4.60040,2470.357,2021-7-12T04:01:08Z
2021-07-12T02:02:56Z,42.805,6.029,13.3046,4.60044,2470.297,2021-7-12T04:04:11Z
2021-07-12T02:05:59Z,42.805,6.029,13.3054,4.60057,2470.334,2021-7-12T04:07:14Z
2021-07-12T02:09:02Z,42.805,6.029,13.3020,4.60050,2470.32,2021-7-12T04:10:17Z
2021-07-12T02:12:05Z,42.805,6.029,13.3034,4.60067,2470.334,2021-7-12T04:13:21Z
2021-07-12T02:15:08Z,42.805,6.029,13.3055,4.60067,2470.334,2021-7-12T04:16:24Z
2021-07-12T02:18:11Z,42.805,6.029,13.3045,4.60056,2470.297,2021-7-12T04:19:27Z
2021-07-12T02:21:14Z,42.805,6.029,13.3043,4.60045,2470.334,2021-7-12T04:22:30Z
2021-07-12T02:24:17Z,42.805,6.029,13.3061,4.60040,2470.334,2021-7-12T04:25:33Z
2021-07-12T02:27:21Z,42.805,6.029,13.3070,4.60031,2470.31,2021-7-12T04:28:36Z
2021-07-12T02:30:24Z,42.805,6.029,13.3082,4.60027,2470.297,2021-7-12T04:31:39Z
2021-07-12T02:33:27Z,42.805,6.029,13.3076,4.60033,2470.357,2021-7-12T04:34:42Z
2021-07-12T02:36:30Z,42.805,6.029,13.3032,4.60059,2470.287,2021-7-12T04:37:46Z
2021-07-12T02:39:33Z,42.805,6.029,13.3034,4.60033,2470.297,2021-7-12T04:40:49Z
2021-07-12T02:42:36Z,42.805,6.029,13.3036,4.60031,2470.287,2021-7-12T04:43:52Z
2021-07-12T02:45:39Z,42.805,6.029,13.3042,4.60020,2470.334,2021-7-12T04:46:55Z
2021-07-12T02:48:42Z,42.805,6.029,13.3040,4.60027,2470.31,2021-7-12T04:49:58Z
2021-07-12T02:51:45Z,42.805,6.029,13.3023,4.60038,2470.32,2021-7-12T04:53:01Z
2021-07-12T02:54:49Z,42.805,6.029,13.3026,4.60023,2470.32,2021-7-12T04:56:04Z
2021-07-12T02:57:52Z,42.805,6.029,13.3026,4.60049,2470.334,2021-7-12T04:59:07Z
2021-07-12T03:00:55Z,42.805,6.029,13.3041,4.60027,2470.334,2021-7-12T05:02:11Z
2021-07-12T03:03:58Z,42.805,6.029,13.3039,4.60057,2470.297,2021-7-12T05:05:14Z
2021-07-12T03:07:01Z,42.805,6.029,13.3033,4.60025,2470.287,2021-7-12T05:08:17Z
2021-07-12T03:10:04Z,42.805,6.029,13.3069,4.60056,2470.297,2021-7-12T05:11:20Z
2021-07-12T03:13:07Z,42.805,6.029,13.3061,4.60067,2470.297,2021-7-12T05:14:23Z
2021-07-12T03:16:10Z,42.805,6.029,13.3009,4.60046,2470.31,2021-7-12T05:17:26Z
2021-07-12T03:19:14Z,42.805,6.029,13.3020,4.60024,2470.297,2021-7-12T05:20:29Z
2021-07-12T03:22:17Z,42.805,6.029,13.3032,4.60060,2470.273,2021-7-12T05:23:32Z
2021-07-12T03:25:20Z,42.805,6.029,13.3038,4.60039,2470.31,2021-7-12T05:26:36Z
2021-07-12T03:28:23Z,42.805,6.029,13.3034,4.60026,2470.31,2021-7-12T05:29:39Z
2021-07-12T03:31:26Z,42.805,6.029,13.3060,4.60057,2470.287,2021-7-12T05:32:42Z
2021-07-12T03:34:29Z,42.805,6.029,13.3070,4.60055,2470.31,2021-7-12T05:35:45Z
2021-07-12T03:37:32Z,42.805,6.029,13.3061,4.60039,2470.273,2021-7-12T05:38:48Z
2021-07-12T03:40:35Z,42.805,6.029,13.3048,4.60031,2470.273,2021-7-12T05:41:51Z
2021-07-12T03:43:39Z,42.805,6.029,13.3057,4.60046,2470.273,2021-7-12T05:44:54Z
2021-07-12T03:46:42Z,42.805,6.029,13.3062,4.60067,2470.334,2021-7-12T05:47:57Z
2021-07-12T03:49:45Z,42.805,6.029,13.3058,4.60064,2470.31,2021-7-12T05:51:01Z
2021-07-12T03:52:48Z,42.805,6.029,13.3057,4.60061,2470.287,2021-7-12T05:54:04Z
2021-07-12T03:55:51Z,42.805,6.029,13.3051,4.60078,2470.264,2021-7-12T05:57:07Z
2021-07-12T03:58:54Z,42.805,6.029,13.3065,4.60046,2470.297,2021-7-12T06:00:10Z
2021-07-12T04:01:57Z,42.805,6.029,13.3036,4.60037,2470.297,2021-7-12T06:03:13Z
2021-07-12T04:05:00Z,42.805,6.029,13.3068,4.60043,2470.273,2021-7-12T06:06:16Z
2021-07-12T04:08:04Z,42.805,6.029,13.3082,4.60032,2470.287,2021-7-12T06:09:19Z
2021-07-12T04:11:07Z,42.805,6.029,13.3087,4.60048,2470.31,2021-7-12T06:12:22Z
2021-07-12T04:14:10Z,42.805,6.029,13.3083,4.60043,2470.31,2021-7-12T06:15:26Z
2021-07-12T04:17:13Z,42.805,6.029,13.3065,4.60034,2470.273,2021-7-12T06:18:29Z
2021-07-12T04:20:16Z,42.805,6.029,13.3061,4.60025,2470.32,2021-7-12T06:21:32Z
2021-07-12T04:23:19Z,42.805,6.029,13.3071,4.60059,2470.31,2021-7-12T06:24:35Z
2021-07-12T04:26:22Z,42.805,6.029,13.3062,4.60032,2470.31,2021-7-12T06:27:38Z
2021-07-12T04:29:25Z,42.805,6.029,13.3075,4.60042,2470.32,2021-7-12T06:30:41Z
2021-07-12T04:32:29Z,42.805,6.029,13.3063,4.60062,2470.273,2021-7-12T06:33:44Z
2021-07-12T04:35:32Z,42.805,6.029,13.3069,4.60043,2470.297,2021-7-12T06:36:47Z
2021-07-12T04:38:35Z,42.805,6.029,13.3063,4.60052,2470.32,2021-7-12T06:39:51Z
2021-07-12T04:41:38Z,42.805,6.029,13.3058,4.60042,2470.31,2021-7-12T06:42:54Z
2021-07-12T04:44:41Z,42.805,6.029,13.3070,4.60066,2470.31,2021-7-12T06:45:57Z
2021-07-12T04:47:44Z,42.805,6.029,13.3066,4.60049,2470.287,2021-7-12T06:49:00Z
2021-07-12T04:50:47Z,42.805,6.029,13.3054,4.60031,2470.334,2021-7-12T06:52:03Z
2021-07-12T04:53:50Z,42.805,6.029,13.3065,4.60027,2470.334,2021-7-12T06:55:06Z
2021-07-12T04:56:54Z,42.805,6.029,13.3070,4.60050,2470.32,2021-7-12T06:58:09Z
2021-07-12T04:59:57Z,42.805,6.029,13.3062,4.60037,2470.32,2021-7-12T07:01:12Z
2021-07-12T05:03:00Z,42.805,6.029,13.3068,4.60042,2470.334,2021-7-12T07:04:15Z
2021-07-12T05:06:03Z,42.805,6.029,13.3056,4.60049,2470.31,2021-7-12T07:07:19Z
2021-07-12T05:09:06Z,42.805,6.029,13.3081,4.60054,2470.32,2021-7-12T07:10:22Z
2021-07-12T05:12:09Z,42.805,6.029,13.3063,4.60039,2470.334,2021-7-12T07:13:25Z
2021-07-12T05:15:12Z,42.805,6.029,13.3074,4.60040,2470.32,2021-7-12T07:16:28Z
2021-07-12T05:18:15Z,42.805,6.029,13.3080,4.60044,2470.31,2021-7-12T07:19:31Z
2021-07-12T05:21:19Z,42.805,6.029,13.3083,4.60053,2470.334,2021-7-12T07:22:34Z
2021-07-12T05:24:22Z,42.805,6.029,13.3079,4.60037,2470.297,2021-7-12T07:25:37Z
2021-07-12T05:27:25Z,42.805,6.029,13.3071,4.60034,2470.32,2021-7-12T07:28:40Z
2021-07-12T05:30:28Z,42.805,6.029,13.3034,4.60042,2470.334,2021-7-12T07:31:44Z
2021-07-12T05:33:31Z,42.805,6.029,13.3034,4.60064,2470.334,2021-7-12T07:34:47Z
2021-07-12T05:36:34Z,42.805,6.029,13.3046,4.60053,2470.343,2021-7-12T07:37:50Z
2021-07-12T05:39:37Z,42.805,6.029,13.3048,4.60029,2470.343,2021-7-12T07:40:53Z
2021-07-12T05:42:40Z,42.805,6.029,13.3050,4.60039,2470.32,2021-7-12T07:43:56Z
2021-07-12T05:45:44Z,42.805,6.029,13.3067,4.60036,2470.38,2021-7-12T07:46:59Z
2021-07-12T05:48:47Z,42.805,6.029,13.3067,4.60045,2470.343,2021-7-12T07:50:02Z
2021-07-12T05:51:50Z,42.805,6.029,13.3087,4.60040,2470.343,2021-7-12T07:53:05Z
2021-07-12T05:54:53Z,42.805,6.029,13.3063,4.60049,2470.357,2021-7-12T07:56:09Z
2021-07-12T05:57:56Z,42.805,6.029,13.3054,4.60048,2470.334,2021-7-12T07:59:12Z
2021-07-12T06:00:59Z,42.805,6.029,13.3053,4.60046,2470.343,2021-7-12T08:02:15Z
2021-07-12T06:04:02Z,42.805,6.029,13.2998,4.60084,2470.366,2021-7-12T08:05:18Z
2021-07-12T06:07:05Z,42.805,6.029,13.3010,4.60042,2470.357,2021-7-12T08:08:21Z
2021-07-12T06:10:08Z,42.805,6.029,13.3072,4.60029,2470.343,2021-7-12T08:11:24Z
2021-07-12T06:13:12Z,42.805,6.029,13.3047,4.60072,2470.334,2021-7-12T08:14:27Z
2021-07-12T06:16:15Z,42.805,6.029,13.3048,4.60074,2470.357,2021-7-12T08:17:30Z
2021-07-12T06:19:18Z,42.805,6.029,13.3024,4.60062,2470.343,2021-7-12T08:20:34Z
2021-07-12T06:22:21Z,42.805,6.029,13.3044,4.60050,2470.357,2021-7-12T08:23:37Z
2021-07-12T06:25:24Z,42.805,6.029,13.3048,4.60051,2470.38,2021-7-12T08:26:40Z
2021-07-12T06:28:27Z,42.805,6.029,13.3051,4.60058,2470.343,2021-7-12T08:29:43Z
2021-07-12T06:31:30Z,42.805,6.029,13.3055,4.60099,2470.357,2021-7-12T08:32:46Z
2021-07-12T06:34:33Z,42.805,6.029,13.3073,4.60067,2470.38,2021-7-12T08:35:49Z
2021-07-12T06:37:37Z,42.805,6.029,13.3056,4.60074,2470.39,2021-7-12T08:38:52Z
2021-07-12T06:40:40Z,42.805,6.029,13.3056,4.60093,2470.39,2021-7-12T08:41:55Z
2021-07-12T06:43:43Z,42.805,6.029,13.3063,4.60106,2470.357,2021-7-12T08:44:59Z
2021-07-12T06:46:46Z,42.805,6.029,13.3031,4.60063,2470.343,2021-7-12T08:48:02Z
2021-07-12T06:49:49Z,42.805,6.029,13.3058,4.60063,2470.38,2021-7-12T08:51:05Z
2021-07-12T06:52:52Z,42.805,6.029,13.3053,4.60087,2470.343,2021-7-12T08:54:08Z
2021-07-12T06:55:55Z,42.805,6.029,13.3064,4.60055,2470.39,2021-7-12T08:57:11Z
2021-07-12T06:58:58Z,42.805,6.029,13.3060,4.60051,2470.366,2021-7-12T09:00:14Z
2021-07-12T07:02:02Z,42.805,6.029,13.3050,4.60060,2470.357,2021-7-12T09:03:17Z
2021-07-12T07:05:05Z,42.805,6.029,13.3051,4.60082,2470.38,2021-7-12T09:06:20Z
2021-07-12T07:08:08Z,42.805,6.029,13.3062,4.60079,2470.366,2021-7-12T09:09:24Z
2021-07-12T07:11:11Z,42.805,6.029,13.3064,4.60072,2470.366,2021-7-12T09:12:27Z
2021-07-12T07:14:14Z,42.805,6.029,13.3024,4.60099,2470.39,2021-7-12T09:15:30Z
2021-07-12T07:17:17Z,42.805,6.029,13.3020,4.60091,2470.39,2021-7-12T09:18:33Z
2021-07-12T07:20:20Z,42.805,6.029,13.3004,4.60067,2470.38,2021-7-12T09:21:36Z
2021-07-12T07:23:23Z,42.805,6.029,13.2997,4.60088,2470.427,2021-7-12T09:24:39Z
2021-07-12T07:26:27Z,42.805,6.029,13.2990,4.60117,2470.366,2021-7-12T09:27:42Z
2021-07-12T07:29:30Z,42.805,6.029,13.3015,4.60076,2470.427,2021-7-12T09:30:45Z
2021-07-12T07:32:33Z,42.805,6.029,13.2994,4.60085,2470.357,2021-7-12T09:33:49Z
2021-07-12T07:35:36Z,42.805,6.029,13.2996,4.60087,2470.366,2021-7-12T09:36:52Z
2021-07-12T07:38:39Z,42.805,6.029,13.3022,4.60077,2470.413,2021-7-12T09:39:55Z
2021-07-12T07:41:42Z,42.805,6.029,13.3073,4.60085,2470.404,2021-7-12T09:42:58Z
2021-07-12T07:44:45Z,42.805,6.029,13.3069,4.60117,2470.38,2021-7-12T09:46:01Z
2021-07-12T07:47:48Z,42.805,6.029,13.3039,4.60051,2470.39,2021-7-12T09:49:04Z
2021-07-12T07:50:52Z,42.805,6.029,13.2998,4.60094,2470.366,2021-7-12T09:52:07Z
2021-07-12T07:53:55Z,42.805,6.029,13.3002,4.60079,2470.38,2021-7-12T09:55:10Z
2021-07-12T07:56:58Z,42.805,6.029,13.2994,4.60057,2470.404,2021-7-12T09:58:14Z
2021-07-12T08:00:01Z,42.805,6.029,13.2993,4.60075,2470.39,2021-7-12T10:01:17Z
2021-07-12T08:03:04Z,42.805,6.029,13.2991,4.60092,2470.413,2021-7-12T10:04:20Z
2021-07-12T08:06:07Z,42.805,6.029,13.2993,4.60042,2470.38,2021-7-12T10:07:23Z
2021-07-12T08:09:10Z,42.805,6.029,13.2991,4.60032,2470.413,2021-7-12T10:10:26Z
2021-07-12T08:12:13Z,42.805,6.029,13.2990,4.60038,2470.427,2021-7-12T10:13:29Z
2021-07-12T08:15:17Z,42.805,6.029,13.2988,4.60036,2470.404,2021-7-12T10:16:32Z
2021-07-12T08:18:20Z,42.805,6.029,13.2991,4.60034,2470.39,2021-7-12T10:19:35Z
2021-07-12T08:21:23Z,42.805,6.029,13.2988,4.60052,2470.413,2021-7-12T10:22:39Z
2021-07-12T08:24:26Z,42.805,6.029,13.2994,4.60075,2470.39,2021-7-12T10:25:42Z
2021-07-12T08:27:29Z,42.805,6.029,13.2992,4.60057,2470.39,2021-7-12T10:28:45Z
2021-07-12T08:30:32Z,42.805,6.029,13.2993,4.60037,2470.39,2021-7-12T10:31:48Z
2021-07-12T08:33:35Z,42.805,6.029,13.2993,4.60033,2470.413,2021-7-12T10:34:51Z
2021-07-12T08:36:38Z,42.805,6.029,13.2991,4.60036,2470.404,2021-7-12T10:37:54Z
2021-07-12T08:39:42Z,42.805,6.029,13.2990,4.60033,2470.427,2021-7-12T10:40:57Z
2021-07-12T08:42:45Z,42.805,6.029,13.2992,4.60036,2470.427,2021-7-12T10:44:00Z
2021-07-12T08:45:48Z,42.805,6.029,13.2991,4.60027,2470.366,2021-7-12T10:47:04Z
2021-07-12T08:48:51Z,42.805,6.029,13.2993,4.60033,2470.404,2021-7-12T10:50:07Z
2021-07-12T08:51:54Z,42.805,6.029,13.2992,4.60066,2470.427,2021-7-12T10:53:10Z
2021-07-12T08:54:57Z,42.805,6.029,13.2987,4.60049,2470.45,2021-7-12T10:56:13Z
2021-07-12T08:58:00Z,42.805,6.029,13.2989,4.60055,2470.39,2021-7-12T10:59:16Z
2021-07-12T09:01:03Z,42.805,6.029,13.2990,4.60035,2470.38,2021-7-12T11:02:19Z
2021-07-12T09:04:07Z,42.805,6.029,13.2990,4.60054,2470.413,2021-7-12T11:05:22Z
2021-07-12T09:07:10Z,42.805,6.029,13.2993,4.60052,2470.427,2021-7-12T11:08:25Z
2021-07-12T09:10:13Z,42.805,6.029,13.2993,4.60051,2470.404,2021-7-12T11:11:29Z
2021-07-12T09:13:16Z,42.805,6.029,13.2988,4.60078,2470.427,2021-7-12T11:14:32Z
2021-07-12T09:16:19Z,42.805,6.029,13.2993,4.60111,2470.404,2021-7-12T11:17:35Z
2021-07-12T09:19:22Z,42.805,6.029,13.2992,4.60077,2470.427,2021-7-12T11:20:38Z
2021-07-12T09:22:25Z,42.805,6.029,13.2991,4.60081,2470.404,2021-7-12T11:23:41Z
2021-07-12T09:25:29Z,42.805,6.029,13.2990,4.60080,2470.413,2021-7-12T11:26:44Z
2021-07-12T09:28:32Z,42.805,6.029,13.2991,4.60096,2470.38,2021-7-12T11:29:47Z
2021-07-12T09:31:35Z,42.805,6.029,13.2988,4.60119,2470.39,2021-7-12T11:32:50Z
2021-07-12T09:34:38Z,42.805,6.029,13.2990,4.60067,2470.39,2021-7-12T11:35:54Z
2021-07-12T09:37:41Z,42.805,6.029,13.2987,4.60039,2470.39,2021-7-12T11:38:57Z
2021-07-12T09:40:44Z,42.805,6.029,13.2991,4.60044,2470.366,2021-7-12T11:42:00Z
2021-07-12T09:43:47Z,42.805,6.029,13.2993,4.60034,2470.39,2021-7-12T11:45:03Z
2021-07-12T09:46:50Z,42.805,6.029,13.2988,4.60043,2470.413,2021-7-12T11:48:06Z
2021-07-12T09:49:54Z,42.805,6.029,13.2990,4.60039,2470.39,2021-7-12T11:51:09Z
2021-07-12T09:52:57Z,42.805,6.029,13.2991,4.60030,2470.366,2021-7-12T11:54:12Z
2021-07-12T09:56:00Z,42.805,6.029,13.2991,4.60035,2470.39,2021-7-12T11:57:15Z
2021-07-12T09:59:03Z,42.805,6.029,13.2989,4.60054,2470.366,2021-7-12T12:00:19Z
2021-07-12T10:02:06Z,42.805,6.029,13.2990,4.60053,2470.39,2021-7-12T12:03:22Z
2021-07-12T10:05:09Z,42.805,6.029,13.2993,4.60033,2470.38,2021-7-12T12:06:25Z
2021-07-12T10:08:12Z,42.805,6.029,13.2991,4.60031,2470.366,2021-7-12T12:09:28Z
2021-07-12T10:11:15Z,42.805,6.029,13.2989,4.60033,2470.366,2021-7-12T12:12:31Z
2021-07-12T10:14:19Z,42.805,6.029,13.2990,4.60025,2470.38,2021-7-12T12:15:34Z
2021-07-12T10:17:22Z,42.805,6.029,13.2987,4.60031,2470.366,2021-7-12T12:18:37Z
2021-07-12T10:20:25Z,42.805,6.029,13.2991,4.60031,2470.404,2021-7-12T12:21:41Z
2021-07-12T10:23:28Z,42.805,6.029,13.2985,4.60030,2470.343,2021-7-12T12:24:44Z
2021-07-12T10:26:31Z,42.805,6.029,13.2990,4.60031,2470.343,2021-7-12T12:27:47Z
2021-07-12T10:29:34Z,42.805,6.029,13.2991,4.60031,2470.357,2021-7-12T12:30:50Z
2021-07-12T10:32:37Z,42.805,6.029,13.2992,4.60021,2470.38,2021-7-12T12:33:53Z
2021-07-12T10:35:40Z,42.805,6.029,13.2991,4.60026,2470.343,2021-7-12T12:36:56Z
2021-07-12T10:38:44Z,42.805,6.029,13.2987,4.60022,2470.32,2021-7-12T12:39:59Z
2021-07-12T10:41:47Z,42.805,6.029,13.2991,4.60023,2470.357,2021-7-12T12:43:02Z
2021-07-12T10:44:50Z,42.805,6.029,13.2986,4.60031,2470.343,2021-7-12T12:46:06Z
2021-07-12T10:47:53Z,42.805,6.029,13.2993,4.60026,2470.38,2021-7-12T12:49:09Z
2021-07-12T10:50:56Z,42.805,6.029,13.2986,4.60026,2470.334,2021-7-12T12:52:12Z
2021-07-12T10:53:59Z,42.805,6.029,13.2990,4.60027,2470.366,2021-7-12T12:55:15Z
2021-07-12T10:57:02Z,42.805,6.029,13.2988,4.60032,2470.334,2021-7-12T12:58:18Z
2021-07-12T11:00:05Z,42.805,6.029,13.2989,4.60042,2470.32,2021-7-12T13:01:21Z
2021-07-12T11:03:09Z,42.805,6.029,13.2994,4.60035,2470.334,2021-7-12T13:04:24Z
2021-07-12T11:06:12Z,42.805,6.029,13.2991,4.60042,2470.334,2021-7-12T13:07:27Z
2021-07-12T11:09:15Z,42.805,6.029,13.2991,4.60049,2470.334,2021-7-12T13:10:31Z
2021-07-12T11:12:18Z,42.805,6.029,13.2991,4.60031,2470.32,2021-7-12T13:13:34Z
2021-07-12T11:15:21Z,42.805,6.029,13.2993,4.60039,2470.32,2021-7-12T13:16:37Z
2021-07-12T11:18:24Z,42.805,6.029,13.3000,4.60066,2470.32,2021-7-12T13:19:40Z
2021-07-12T11:21:27Z,42.805,6.029,13.3008,4.60008,2470.32,2021-7-12T13:22:43Z
2021-07-12T11:24:30Z,42.805,6.029,13.2997,4.60013,2470.32,2021-7-12T13:25:46Z
2021-07-12T11:27:34Z,42.805,6.029,13.2991,4.60044,2470.32,2021-7-12T13:28:49Z
2021-07-12T11:30:37Z,42.805,6.029,13.2991,4.60046,2470.32,2021-7-12T13:31:52Z
2021-07-12T11:33:40Z,42.805,6.029,13.2994,4.60026,2470.297,2021-7-12T13:34:56Z
2021-07-12T11:36:43Z,42.805,6.029,13.2995,4.60049,2470.297,2021-7-12T13:37:59Z
2021-07-12T11:39:46Z,42.805,6.029,13.2993,4.60042,2470.297,2021-7-12T13:41:02Z
2021-07-12T11:42:49Z,42.805,6.029,13.2992,4.60025,2470.31,2021-7-12T13:44:05Z
2021-07-12T11:45:52Z,42.805,6.029,13.2986,4.60031,2470.297,2021-7-12T13:47:08Z
2021-07-12T11:48:56Z,42.805,6.029,13.2992,4.60022,2470.334,2021-7-12T13:50:11Z
2021-07-12T11:51:59Z,42.805,6.029,13.2991,4.60032,2470.32,2021-7-12T13:53:14Z
2021-07-12T11:55:02Z,42.805,6.029,13.2996,4.60083,2470.343,2021-7-12T13:56:18Z
2021-07-12T11:58:05Z,42.805,6.029,13.3002,4.60062,2470.32,2021-7-12T13:59:21Z
2021-07-12T12:01:08Z,42.805,6.029,13.3005,4.60049,2470.32,2021-7-12T14:02:24Z
2021-07-12T12:04:11Z,42.805,6.029,13.3006,4.60059,2470.334,2021-7-12T14:05:27Z
2021-07-12T12:07:14Z,42.805,6.029,13.3004,4.60054,2470.31,2021-7-12T14:08:30Z
2021-07-12T12:10:17Z,42.805,6.029,13.3008,4.60079,2470.31,2021-7-12T14:11:33Z
2021-07-12T12:13:21Z,42.805,6.029,13.3022,4.60036,2470.32,2021-7-12T14:14:36Z
2021-07-12T12:16:24Z,42.805,6.029,13.3009,4.60049,2470.297,2021-7-12T14:17:39Z
2021-07-12T12:19:27Z,42.805,6.029,13.3002,4.60067,2470.32,2021-7-12T14:20:43Z
2021-07-12T12:22:30Z,42.805,6.029,13.3009,4.60060,2470.297,2021-7-12T14:23:46Z
2021-07-12T12:25:33Z,42.805,6.029,13.3001,4.60029,2470.31,2021-7-12T14:26:49Z
2021-07-12T12:28:36Z,42.805,6.029,13.3003,4.60022,2470.334,2021-7-12T14:29:52Z
2021-07-12T12:31:39Z,42.805,6.029,13.3000,4.60034,2470.273,2021-7-12T14:32:55Z
2021-07-12T12:34:42Z,42.805,6.029,13.2996,4.60052,2470.31,2021-7-12T14:35:58Z
2021-07-12T12:37:46Z,42.805,6.029,13.2998,4.60062,2470.287,2021-7-12T14:39:01Z
2021-07-12T12:40:49Z,42.805,6.029,13.2998,4.60069,2470.31,2021-7-12T14:42:04Z
2021-07-12T12:43:52Z,42.805,6.029,13.2999,4.60063,2470.25,2021-7-12T14:45:08Z
2021-07-12T12:46:55Z,42.805,6.029,13.3001,4.60078,2470.273,2021-7-12T14:48:11Z
2021-07-12T12:49:58Z,42.805,6.029,13.3007,4.60080,2470.287,2021-7-12T14:51:14Z
2021-07-12T12:53:01Z,42.805,6.029,13.3014,4.60077,2470.264,2021-7-12T14:54:17Z
2021-07-12T12:56:04Z,42.805,6.029,13.3019,4.60048,2470.264,2021-7-12T14:57:20Z
2021-07-12T12:59:08Z,42.805,6.029,13.3024,4.60037,2470.264,2021-7-12T15:00:23Z
2021-07-12T13:02:11Z,42.805,6.029,13.3018,4.60031,2470.25,2021-7-12T15:03:26Z
2021-07-12T13:05:14Z,42.805,6.029,13.3006,4.60052,2470.287,2021-7-12T15:06:29Z
2021-07-12T13:08:17Z,42.805,6.029,13.3000,4.60039,2470.264,2021-7-12T15:09:33Z
2021-07-12T13:11:20Z,42.805,6.029,13.3006,4.60049,2470.264,2021-7-12T15:12:36Z
2021-07-12T13:14:23Z,42.805,6.029,13.3000,4.60029,2470.297,2021-7-12T15:15:39Z
2021-07-12T13:17:26Z,42.805,6.029,13.3000,4.60026,2470.287,2021-7-12T15:18:42Z
2021-07-12T13:20:29Z,42.805,6.029,13.3199,4.60018,2470.25,2021-7-12T15:21:45Z
2021-07-12T13:23:33Z,42.805,6.029,13.3107,4.60021,2470.264,2021-7-12T15:24:48Z
2021-07-12T13:26:36Z,42.805,6.029,13.3069,4.60032,2470.287,2021-7-12T15:27:51Z
2021-07-12T13:29:39Z,42.805,6.029,13.3089,4.60031,2470.264,2021-7-12T15:30:54Z
2021-07-12T13:32:42Z,42.805,6.029,13.3068,4.60031,2470.264,2021-7-12T15:33:58Z
2021-07-12T13:35:45Z,42.805,6.029,13.3026,4.60027,2470.24,2021-7-12T15:37:01Z
2021-07-12T13:38:48Z,42.805,6.029,13.3027,4.60049,2470.264,2021-7-12T15:40:04Z
2021-07-12T13:41:51Z,42.805,6.029,13.3029,4.60027,2470.273,2021-7-12T15:43:07Z
2021-07-12T13:44:54Z,42.805,6.029,13.3039,4.60025,2470.25,2021-7-12T15:46:10Z
2021-07-12T13:47:58Z,42.805,6.029,13.3053,4.60035,2470.264,2021-7-12T15:49:13Z
2021-07-12T13:51:01Z,42.805,6.029,13.3049,4.60033,2470.24,2021-7-12T15:52:16Z
2021-07-12T13:54:04Z,42.805,6.029,13.3044,4.60039,2470.25,2021-7-12T15:55:20Z
2021-07-12T13:57:07Z,42.805,6.029,13.3069,4.60031,2470.264,2021-7-12T15:58:23Z
2021-07-12T14:00:10Z,42.805,6.029,13.3034,4.60049,2470.24,2021-7-12T16:01:26Z
2021-07-12T14:03:13Z,42.805,6.029,13.3041,4.60074,2470.25,2021-7-12T16:04:29Z
2021-07-12T14:06:16Z,42.805,6.029,13.3034,4.60055,2470.273,2021-7-12T16:07:32Z
2021-07-12T14:09:19Z,42.805,6.029,13.3022,4.60073,2470.264,2021-7-12T16:10:35Z
2021-07-12T14:12:23Z,42.805,6.029,13.3039,4.60059,2470.264,2021-7-12T16:13:38Z
2021-07-12T14:15:26Z,42.805,6.029,13.3037,4.60052,2470.227,2021-7-12T16:16:41Z
2021-07-12T14:18:29Z,42.805,6.029,13.3029,4.60076,2470.24,2021-7-12T16:19:45Z
2021-07-12T14:21:32Z,42.805,6.029,13.3040,4.60104,2470.264,2021-7-12T16:22:48Z
2021-07-12T14:24:35Z,42.805,6.029,13.3050,4.60079,2470.264,2021-7-12T16:25:51Z
2021-07-12T14:27:38Z,42.805,6.029,13.3054,4.60049,2470.24,2021-7-12T16:28:54Z
2021-07-12T14:30:41Z,42.805,6.029,13.3046,4.60097,2470.264,2021-7-12T16:31:57Z
2021-07-12T14:33:44Z,42.805,6.029,13.3058,4.60037,2470.24,2021-7-12T16:35:00Z
2021-07-12T14:36:48Z,42.805,6.029,13.3066,4.60055,2470.264,2021-7-12T16:38:03Z
2021-07-12T14:39:51Z,42.805,6.029,13.3054,4.60062,2470.24,2021-7-12T16:41:06Z
2021-07-12T14:42:54Z,42.805,6.029,13.3039,4.60041,2470.217,2021-7-12T16:44:10Z
2021-07-12T14:45:57Z,42.805,6.029,13.3045,4.60035,2470.25,2021-7-12T16:47:13Z
2021-07-12T14:49:00Z,42.805,6.029,13.3012,4.60097,2470.25,2021-7-12T16:50:16Z
2021-07-12T14:52:03Z,42.805,6.029,13.3049,4.60092,2470.24,2021-7-12T16:53:19Z
2021-07-12T14:55:06Z,42.805,6.029,13.3069,4.60098,2470.264,2021-7-12T16:56:22Z
2021-07-12T14:58:09Z,42.805,6.029,13.3024,4.60079,2470.24,2021-7-12T16:59:25Z
2021-07-12T15:01:13Z,42.805,6.029,13.3063,4.60077,2470.264,2021-7-12T17:02:28Z
2021-07-12T15:04:16Z,42.805,6.029,13.3015,4.60069,2470.24,2021-7-12T17:05:31Z
2021-07-12T15:07:19Z,42.805,6.029,13.3031,4.60108,2470.24,2021-7-12T17:08:35Z
2021-07-12T15:10:22Z,42.805,6.029,13.3024,4.60122,2470.25,2021-7-12T17:11:38Z
2021-07-12T15:13:25Z,42.805,6.029,13.3036,4.60099,2470.264,2021-7-12T17:14:41Z